ELFIN-A (43617 NORAD) Tracking and Keplerian Element Data

This shows tracking and keplerian element data for the satellite.

Feedback or suggestion? Click here.




ElementValue
Catalog43617
NameELFIN-A
Epoch Orbit907
Epoch Day317.65808317
Epoch Year2018
RAAN273.9567
Inclination93.0353
Eccentricity0.0020423
Argument of Perigee63.405
Mean Anonmoly296.9377
Mean Motion15.36651094
Decay Rate-6E-08
L11 43617U 18070E 18317.65808317 -.00000006 00000-0 00000+0 0 9991
L22 43617 93.0353 273.9567 0020423 63.4050 296.9377 15.36651094 9073

Live tracking and technical data element details for ELFIN-A (NORAD 43617). ELFIN-A can be tracked NOW for your location showing map with azimuth and elevation plus other details from your city location.

Track the satellite on the map from your city or location and see movement details for azimuth, elevation, latitude, longitude, range, height, and movement on the map or in text.







IsCatalogInMostPopularTable: catalog: 43617, numindb: 16
Update: records affected: 1



GetName: 43617 ELFIN-A

Hit Count: updated at: Thu, 15 Nov 2018 03:48:00 GMT